Location: Gleizolles
(44.4833°N, 6.7667°E)
Time: 22:22:59
(UTC+00:00)

Tiros 1 despin weight - Pass Details

Date: 26 June 2024
Orbit: 576 x 620 km, 48.2° (Epoch: 19 July)

Event Time Altitude Azimuth Distance (km) Brightness Sun altitude
Rises 08:36:10 0° 188° (S) 2,857 ? 47.8°
Reaches altitude 10° 08:39:37 10° 160° (SSE) 1,966 ? 48.4°
Maximum altitude 08:41:40 13° 133° (SE) 1,781 ? 48.8°
Drops below altitude 10° 08:43:45 10° 106° (ESE) 1,979 ? 49.1°
Sets 08:47:14 0° 79° (ENE) 2,894 ? 49.7°
